Theta_e
312 312 315 317 316 318 320 321 321 320 319 319 320 320 321 325 326 326 325 324 326 328
312 314 316 317 317 319 321 322 320 319 317 318 318 318 318 318 320 324 326 328 326 326
312 314 315 315 315 317 320 321 320 318 317 316 317 316 316 315 316 317 318 322 324 325
310 311 313 313 314 315 318 319 319 318 317 315 315 315 314 314 315 315 316 318 319 320
308 309 310 311 312 312 313 317 318 318 317 315 315 315 313 313 315 315 314 315 316 317
306 307 307 308 310 311 312 314 315 316 316 315 315 315 314 313 314 314 314 315 315 316
304 304 304 305 306 307 309 310 312 313 315 315 315 314 314 313 313 314 314 315 315 315
304 304 305 305 305 306 307 308 309 309 310 311 312 313 313 314 314 313 313 315 315 316
302 303 303 304 304 304 305 305 306 307 307 308 309 306 306 311 312 313 313 312 313 314
300 300 300 301 301 301 301 303 303 304 305 305 307 303 303 305 311 311 312 311 311 311
298 297 298 298 298 299 300 300 301 302 303 304 305 302 300 302 309 309 309 309 310 311
296 296 296 296 296 296 296 296 297 298 299 302 305 300 299 300 305 305 306 308 309 311
295 295 295 295 295 295 295 295 297 297 298 299 302 300 298 300 303 303 303 305 308 305
295 294 294 294 294 294 293 295 295 295 296 299 300 301 298 297 302 303 304 306 308 312
Wind_Speed
8 5 5 6 5 5 5 5 6 6 5 6 4 3 3 2 1 3 4 7 6 7
7 7 8 9 7 6 5 5 7 7 7 6 6 5 3 3 2 3 3 5 6 6
8 7 7 5 8 8 8 8 8 8 8 7 6 6 5 4 4 4 4 4 6 6
5 5 4 5 6 8 7 10 10 10 10 9 8 7 6 6 5 6 5 5 6 8
6 5 5 5 6 4 7 6 9 9 10 10 10 10 9 9 7 7 7 7 6 8
5 5 6 6 7 7 7 9 9 9 11 12 12 11 11 11 10 10 10 9 8 9
6 6 6 6 6 6 7 8 9 11 14 14 13 12 12 12 12 12 11 11 10 9
6 6 6 6 6 6 7 8 9 11 11 13 12 11 14 14 14 13 12 11 11 11
8 8 9 8 9 9 11 11 10 11 12 13 11 15 18 16 12 13 12 11 11 12
11 11 11 11 12 12 13 12 13 14 12 14 14 16 18 19 12 11 11 11 11 11
12 13 12 11 11 9 8 9 10 12 13 13 12 16 17 17 11 9 10 12 12 12
11 12 12 11 11 11 10 10 11 12 15 13 12 12 14 11 8 9 10 10 13 14
12 12 12 13 13 12 10 12 10 12 13 16 14 14 14 14 10 13 11 14 15 18
12 12 13 13 12 12 12 10 11 13 13 14 12 13 14 14 10 10 10 9 10 9
Wind_Direction
197 193 182 181 187 196 192 191 179 190 196 217 234 245 242 228 211 262 256 267 256 257
204 198 198 202 195 192 198 207 192 192 198 214 220 234 238 243 225 217 250 253 245 256
210 208 212 193 204 201 205 212 201 203 204 214 224 226 224 239 232 220 209 220 244 257
279 288 298 243 228 221 217 216 215 211 210 212 216 226 226 231 241 242 242 214 217 242
280 269 247 251 269 298 273 276 243 224 218 218 216 218 217 225 225 229 241 244 209 237
313 284 269 258 249 246 238 235 228 229 235 239 229 220 219 220 223 222 228 236 227 237
327 320 305 299 292 284 274 261 252 236 234 230 231 230 228 223 222 225 228 231 235 236
308 304 301 296 287 279 276 273 260 261 251 245 237 231 227 227 223 222 228 230 231 236
297 296 288 277 277 275 274 272 265 256 252 254 246 239 223 220 223 222 223 229 236 239
281 279 279 277 276 274 272 270 267 268 260 260 257 247 235 226 225 222 223 227 236 245
282 280 281 280 274 273 276 277 276 270 265 262 262 242 235 233 236 235 240 239 241 243
284 284 283 276 277 276 272 274 273 273 274 275 271 250 237 236 243 249 246 254 263 259
290 284 284 285 284 279 276 277 277 279 276 275 278 257 244 246 261 268 269 270 263 244
283 287 287 283 282 281 277 279 279 277 275 272 263 266 252 244 250 257 256 250 260 260